Showing default

SPACEMOBILE-004, 61049

Orbit data source: Space-Track

SPACEMOBILE-004, 61049 is a payload satellite owned by AST & Science (US) in LEO that was launched on Thu, 12 Sep 2024 UTC via an FALCON 9 launch vehicle from the Air Force Eastern Test Range (AFETR). Payload-class satellites include a variety of spacecraft equipped with specific instruments for various scientific and technological missions. These include communications satellites like Starlink; space stations such as the ISS; scientific satellites like the Hubble; Earth observation satellites from companies like Planet Labs, Umbra, and HawkEye 360; GPS; miniature CubeSats for education and research; and military/defense satellites.

Loading next visibility...
Identifier
61049, 2024-163E
Orbit
LEO
Last TLE update
20 hours ago
Origin
Manufacturer
AST & Science
Mission
Operational Commercial Communications
Bus & Motor
BW3, Unknown motor
Mass
1,500 kg wet, 1,500 kg dry
Launch date (UTC)
2024-09-12 (10 months ago)
Launch vehicle
FALCON 9
Launch site
Air Force Eastern Test Range (AFETR)
Object type
Payload
Rocket body
Debris
Shape & HBR
Box + 1 Plate, 9 m
Radar Cross Section
1.500 m², Large (>1 m²)

Expand to show TLE details & history

TLE from 20 hours ago
0 SPACEMOBILE-004
1 61049U 24163E   25187.11408032  .00003186  00000-0  15893-3 0  9995
2 61049  52.9794 100.5155 0010323 161.0044 199.1337 15.20414172 45100
Epoch: 2025-07-06T02:44Z
TLE epoch observation values (Epoch: 2025-07-06T02:44:16.539Z)
Latitude
-0.00004°
Longitude
135.10414°
Altitude
512.18 km
Speed
7.605 km/s
True Right ascension
06h 42m 03s
True Declination
0° 00' 00"
Sunlit
Object was in daylight at epoch
Visualization orbit readout
Latitude
-25.10869°
Longitude
110.62695°
Altitude
518.709 km
Speed
7.6 km/s
Apparent Right ascension
02h 32m 43s
Apparent Declination
-41° 10' 24"
Sunlit
Object is in daylight
Visualization observer readout
Local Sidereal Time
11:06:38
Azimuth
250.87° W
Elevation
-51.414°
Doppler factor
1
Orbital elements
Apogee altitude
511.98 km
Perigee altitude
497.769 km
Semi-major axis
6,883.012 km
Eccentricity
0.00103
Inclination
52.9794°
RAAN
100.5155°
Arg. of periapsis
161.0044°
True anomaly
Unknown
Mean anomaly
199.1337°
Eccentric anomaly
Unknown
Mean motion
3.8008 °/min
Orbital period
94.72 mins
BSTAR
0.00015893
Loading maneuver chart data...
Loading SW <> Apogee altitude chart data...
Loading historical data...
Loading historical data...
Loading historical data...
Loading historical data...
Loading historical data...
Loading historical data...
Loading historical data...

SPACEMOBILE-004 Visibility forecast

Observer location: undefined°, undefined°

Span
Click to sort rows by Start time (UTC) header in descending order
Start Az.
Max El. time (UTC)
Max El. Az.
Max El.
End time (UTC)
End Az.
5 mins2025-07-07 02:53:24.223Z339.354° N2025-07-07 02:55:24.223Z35.237° NE29.932°2025-07-07 02:58:24.223Z96.096° ESE
4 mins2025-07-07 04:32:24.223Z267.553° W2025-07-07 04:33:24.223Z241.551° WSW26.889°2025-07-07 04:36:24.223Z171.394° S
5 mins2025-07-07 19:55:24.223Z188.754° SSW2025-07-07 19:57:24.223Z145.318° SSE28.928°2025-07-07 20:00:24.223Z73.466° E
5 mins2025-07-07 21:34:24.223Z278.961° WNW2025-07-07 21:36:24.223Z332.29° NNW29.019°2025-07-07 21:39:24.223Z32.715° NE
|